CUBESAT XI-V

Last updated on Fri Feb 07 2025 00:03:03 GMT+0000 (Coordinated Universal Time)

1 28895U 05043F 25037.36818301 .00003751 00000+0 63143-3 0 9996 2 28895 98.2277 180.3955 0014546 340.8373 19.2284 14.70101266 29069
UTC large
Height (km)
Speed (km/s)
/
Latitude / Longitude
Inclination (degrees)
Orbital Period (minutes)
Azimuth
Elevation
Range (km)
Doppler Factor

Next 0 passes for location: London (51.5072 / 0.1276)

Sorry there are no passes over London.